{"data":{"norad_id":48142,"epoch":"2026-09-19T19:11:30.864192Z","epoch_age_seconds":89908,"freshness":"FRESH","line1":"1 48142U 21027BC  26262.79966278 -.00002407  00000+0 -65830-4 0  9993","line2":"2 48142  53.1607 329.6960 0001186  79.4282 280.6853 15.31701066302429","mean_motion":15.31701066,"eccentricity":0.0001186,"inclination_deg":53.1607,"raan_deg":329.696,"arg_perigee_deg":79.4282,"mean_anomaly_deg":280.6853,"bstar":-6.583e-5,"rev_number":30242,"period_min":94.013122531835,"perigee_km":469.9245411022,"apogee_km":471.54909397172,"semimajor_km":6848.873817537,"source":"CELESTRAK","updated_at":"2026-09-20T09:00:38.925482Z"}}